Regional Weather Roundup
Issued by NWS

Home | Current Version | Previous Version | Text Only | Print | Product List | Glossary On
Versions: 1 2 3 4 5 6 7 8 9 10 11 12 13 14 15 16 17 18 19 20 21 22 23 24 25 26 27 28 29 30 31 32 33 34 35 36 37 38 39 40 41 42 43 44 45 46 47 48 49 50
000
ASCA44 KEWX 211320
RWRMX

LATIN AMERICA AND CARIBBEAN REGIONAL WEATHER ROUNDUP
NATIONAL WEATHER SERVICE AUSTIN/SAN ANTONIO TX
700 AM CST SUN DEC 21 2014

NOTE: "FAIR" INDICATED FEW OR NO CLOUDS BELOW 12,000 FEET WITH NO
SIGNIFICANT WEATHER AND/OR OBSTRUCTIONS TO VISIBILITY.

BAJA CALIFORNIA

CITY           SKY/WX    TMP DP  RH WIND       PRES   REMARKS
S.J. DEL CABO  CLEAR     52  48  87 CALM      30.00
TIJUANA        CLEAR     54  46  76 E6        30.12F

NORTHWESTERN MEXICO

CITY           SKY/WX    TMP DP  RH WIND       PRES   REMARKS
CULIACAN       CLEAR     54  50  87 CALM      29.98
DURANGO        CLEAR     30  16  55 E6        30.20S WCI  24
CD. JUAREZ       N/A    N/A N/A N/A MISG        N/A

NORTHEASTERN MEXICO

CITY           SKY/WX    TMP DP  RH WIND       PRES   REMARKS
CHIHUAHUA      CLEAR     27  19  74 S3        30.11
MATAMOROS      CLOUDY    57  57 100 NW9       30.09
MONCLOVA       CLOUDY    50  50 100 NE6       30.07  FOG     WCI  48
MONTERREY      FOG       52  50  93 CALM      30.08S VSB 1/2
NUEVO LAREDO   CLOUDY    52  48  87 CALM      30.10
PIEDRAS NEGRAS   N/A    N/A N/A N/A MISG        N/A
REYNOSA        DRIZZLE   52  50  93 NW7       30.09  FOG
SALTILLO       FOG       50  45  81 S7        30.16  VSB 3/4 WCI  47
TORREON        CLEAR     43  39  87 CALM      30.10R
CD. VICTORIA     N/A     57  57 100 NW3       30.09  FOG

WESTERN MEXICO

CITY           SKY/WX    TMP DP  RH WIND       PRES   REMARKS
AGUASCALIENTES PTCLDY    46  36  66 NW5       30.23  WCI  44
COLIMA         CLEAR     70  52  52 N7        30.04R
DEL BAJIO      MOCLDY    48  43  81 CALM      30.27R
GUADALAJARA    MOCLDY    52  41  66 CALM      30.16
MAZATLAN       CLEAR     52  48  87 N6        29.93R
P. VALLARTA    PTCLDY    66  64  94 NE5       29.95S
URUAPAN        MOCLDY    55  54  94 CALM      30.17

CENTRAL MEXICO

CITY           SKY/WX    TMP DP  RH WIND       PRES   REMARKS
CUERNAVACA     MOCLDY    59  43  55 CALM      30.15
MEXICO CITY    CLOUDY    54  39  58 W3        30.30R
MORELIA        PTCLDY    45  41  87 CALM      30.21
POZA RICA      LGT RAIN  64  64 100 CALM      30.08  VSB 3/4
PUEBLA         MOCLDY    41  37  87 CALM      30.30
QUERETARO      MOCLDY    48  45  87 CALM      30.27R
S. LUIS POTOSI FOG       48  48 100 CALM      30.20R VSB 1/4
TAMPICO        MOCLDY    63  61  94 NW9       30.05R
TOLUCA         PTCLDY    34  32  93 N6        30.37R WCI  29

SOUTHERN MEXICO

CITY           SKY/WX    TMP DP  RH WIND       PRES   REMARKS
ACAPULCO       MOCLDY    73  72  94 N3        29.93R
B. DE HUATULCO PTCLDY    72  66  83 CALM      29.97
OAXACA         MOCLDY    55  50  82 N7        30.23
P. ESCONDIDO   MOCLDY    73  66  78 E12       30.06
VERACRUZ       CLOUDY    72  66  83 E5        30.00R
ZIHUATANEJO    PTCLDY    66  61  82 CALM      29.93

YUCATAN PENINSULA

CITY           SKY/WX    TMP DP  RH WIND       PRES   REMARKS
CAMPECHE       FOG       70  70 100 CALM      29.98R VSB 1/4
CANCUN         CLOUDY    73  73 100 CALM      29.99R
CHETUMAL       MOCLDY    73  64  73 CALM      29.98
CD. DEL CARMEN MOCLDY    73  72  94 CALM      29.99
COZUMEL        PTCLDY    70  70 100 CALM      29.99R
MERIDA         FOG       72  72 100 CALM      30.00R VSB 1/8
MINATITLAN     CLOUDY    66  64  94 CALM      29.98
TAPACHULA      PTCLDY    73  66  78 CALM      29.93R
TUX. GUTIERREZ PTCLDY    61  61 100 CALM      30.04R FOG
VILLAHERMOSA   MOCLDY    72  70  94 CALM      30.02R FOG

CENTRAL AMERICA

CITY           SKY/WX    TMP DP  RH WIND       PRES   REMARKS
BELIZE CITY    PTCLDY    73  72  94 CALM      30.00R
MANAGUA        MOSUNNY   73  66  78 CALM      29.89S

CARIBBEAN

CITY           SKY/WX    TMP DP  RH WIND       PRES   REMARKS
ARUBA          MOSUNNY   84  73  70 E17       29.94R HX  91
CURACAO        MOSUNNY   84  73  70 E15       29.97R HX  91
KINGSTON       MOSUNNY   81  66  61 N5        30.00R
NASSAU         MOSUNNY   70  63  78 CALM      30.11R
SAN JUAN       MOSUNNY   81  70  69 E7        30.09R
SANTO DOMINGO  MOSUNNY   75  70  83 CALM      30.06R
ST. CROIX      MOSUNNY   81  70  69 NE12      30.07
ST. KITTS      MOSUNNY   81  73  78 NE15      30.06R
ST. THOMAS     MOSUNNY   81  66  61 E12G23    30.08

$$



USA.gov is the U.S. government's official web portal to all federal, state and local government web resources and services.